JCSAT-13

Last updated on Aug. 10, 2020, 5:33 a.m. UTC

1 38331U 12023A   20222.87340971 -.00000359  00000-0  00000-0 0  9991
2 38331   0.0120 125.3822 0002342  13.1657 258.6804  1.00271866 30096
UTC
Height (km)
Latitude
Longitude
Inclination
Orbital Period
UTC large
Height (km)
Speed (km/s)
/
Latitude / Longitude
Inclination (degrees)
Orbital Period (minutes)
Azimuth
Elevation
Range (km)
Doppler Factor
iOS Compass Heading
iOS Angle

Next 30 passes for location: Hong Kong

Rise time Rise Azimuth (degrees) Set time Set Azimuth (degrees) Duration Max altitude (degrees)

No matching passes for this satellites